TimeCST,TemperatureF,Dew PointF,Humidity,Sea Level PressureIn,VisibilityMPH,Wind Direction,Wind SpeedMPH,Gust SpeedMPH,PrecipitationIn,Events,Conditions,WindDirDegrees,DateUTC
12:53 AM,63.0,57.9,84,30.10,10.0,SSW,4.6,-,N/A,,Clear,200,2012-12-03 06:53:00
1:53 AM,64.0,59.0,84,30.10,10.0,SSW,6.9,-,N/A,,Overcast,200,2012-12-03 07:53:00
2:53 AM,64.0,57.9,80,30.11,10.0,South,4.6,-,N/A,,Partly Cloudy,190,2012-12-03 08:53:00
3:53 AM,63.0,57.0,81,30.10,10.0,Variable,5.8,-,N/A,,Partly Cloudy,0,2012-12-03 09:53:00
4:53 AM,62.1,57.0,84,30.09,10.0,South,6.9,-,N/A,,Partly Cloudy,190,2012-12-03 10:53:00
5:53 AM,62.1,57.0,84,30.10,10.0,South,8.1,-,N/A,,Clear,180,2012-12-03 11:53:00
6:53 AM,61.0,55.9,83,30.11,10.0,South,6.9,-,N/A,,Scattered Clouds,180,2012-12-03 12:53:00
7:53 AM,63.0,57.0,81,30.11,10.0,SSW,8.1,-,N/A,,Overcast,200,2012-12-03 13:53:00
8:53 AM,64.0,57.9,80,30.12,10.0,South,9.2,17.3,N/A,,Clear,190,2012-12-03 14:53:00
9:53 AM,66.0,57.9,75,30.13,10.0,SSW,16.1,27.6,N/A,,Clear,210,2012-12-03 15:53:00
10:19 AM,64.4,59.0,83,30.13,10.0,SSW,17.3,26.5,N/A,,Mostly Cloudy,210,2012-12-03 16:19:00
10:53 AM,66.0,59.0,78,30.11,10.0,SSW,12.7,-,N/A,,Mostly Cloudy,210,2012-12-03 16:53:00
11:01 AM,66.2,59.0,78,30.11,10.0,SSW,9.2,21.9,N/A,,Scattered Clouds,200,2012-12-03 17:01:00
11:42 AM,66.2,57.2,73,30.10,10.0,SSW,11.5,20.7,N/A,,Mostly Cloudy,210,2012-12-03 17:42:00
11:53 AM,66.9,57.9,73,30.09,10.0,SSW,17.3,27.6,N/A,,Mostly Cloudy,210,2012-12-03 17:53:00
12:53 PM,69.1,59.0,70,30.06,10.0,South,12.7,24.2,N/A,,Mostly Cloudy,190,2012-12-03 18:53:00
1:46 PM,69.8,59.0,68,30.06,10.0,SSW,11.5,20.7,N/A,,Scattered Clouds,200,2012-12-03 19:46:00
1:53 PM,69.1,59.0,70,30.05,10.0,SSW,9.2,19.6,N/A,,Mostly Cloudy,200,2012-12-03 19:53:00
2:53 PM,71.1,57.9,63,30.03,10.0,South,12.7,20.7,N/A,,Partly Cloudy,190,2012-12-03 20:53:00
3:53 PM,70.0,57.9,65,30.03,10.0,South,6.9,-,N/A,,Clear,190,2012-12-03 21:53:00
4:53 PM,66.9,57.9,73,30.03,10.0,South,6.9,-,N/A,,Partly Cloudy,170,2012-12-03 22:53:00
5:53 PM,66.9,55.0,66,30.03,10.0,South,9.2,-,N/A,,Scattered Clouds,170,2012-12-03 23:53:00
6:53 PM,66.0,52.0,60,30.03,10.0,South,11.5,-,N/A,,Partly Cloudy,170,2012-12-04 00:53:00
7:53 PM,66.0,51.1,59,30.04,10.0,South,9.2,-,N/A,,Mostly Cloudy,180,2012-12-04 01:53:00
8:53 PM,66.0,52.0,60,30.04,10.0,South,8.1,-,N/A,,Clear,180,2012-12-04 02:53:00
9:53 PM,66.0,53.1,63,30.04,10.0,South,8.1,16.1,N/A,,Mostly Cloudy,190,2012-12-04 03:53:00
10:53 PM,66.0,54.0,65,30.05,10.0,SSW,9.2,17.3,N/A,,Mostly Cloudy,200,2012-12-04 04:53:00
11:53 PM,66.0,55.0,68,30.04,10.0,SSW,12.7,18.4,N/A,,Overcast,200,2012-12-04 05:53:00